カタログに戻る

STARLINK-4795

運用中通信VLEO
NORAD 53856·PAYLOAD·🇺🇸 United States

打ち上げ Sep 19, 2022 から Cape Canaveral Space Force Station

Loading…

次のパス (今後24時間)

TLE

最新Source: CelesTrak SupGP

元期: Sep 14, 2026, 21:32 UTC

1 53856C 22114AQ  26257.89770833 -.00010750  00000+0 -40554-3 0  2576
2 53856  53.1970 105.0756 0001552  77.6295 352.7981 15.26514702    16

AllMySatでSTARLINK-4795をリアルタイム追跡

Download on the App Store